Copper Harbor, MI

8:33 PM EDT on April 29, 2017 (GMT -0400)
Copper Harbor

Weather History for KP59 - December, 2013

Change the Weather History Date:

Monday, December 16, 2013

  Actual Average Record
Temperature  
Mean Temperature 14 °F -  
Max Temperature 17 °F 29 °F 43 °F (2001)
Min Temperature 10 °F 20 °F 1 °F (2008)
Degree Days  
Heating Degree Days 52    
Moisture  
Dew Point 7 °F    
Average Humidity 76    
Maximum Humidity 88    
Minimum Humidity 59    
Precipitation  
Precipitation 0.08 in - - ()
Sea Level Pressure  
Sea Level Pressure 30.02 in    
Wind  
Wind Speed 7 mph (WSW)    
Max Wind Speed 14 mph    
Max Gust Speed 23 mph    
Averages and records for this station are not official NWS values.
T = Trace of Precipitation, MM = Missing Value Source: NWS Daily Summary

Daily Weather History Graph

Daily Weather History Graph

Search for Another Location

Airport or City:

Trip Planner

Search our weather history database for the weather conditions in past years. The results will help you decide how hot, cold, wet, or windy it might be!

Date:

Astronomy

Dec. 16, 2013 Rise Set
Actual Time 8:33 AM EST 5:01 PM EST
Civil Twilight 7:57 AM EST 5:37 PM EST
Nautical Twilight 7:18 AM EST 6:16 PM EST
Astronomical Twilight 6:40 AM EST 6:53 PM EST
Moon 4:55 PM EST (12/16) 7:37 AM EST (12/16)
Length of Visible Light 9h 39m
Length of Day
8h 27m
Full, 100% of the Moon is Illuminated
Dec 16
Full
Dec 17
Full
Dec 25
Last Quarter
Jan 1
New
Jan 7
First Quarter

Hourly Weather History & Observations

Time (EST) Temp. Windchill Dew Point Humidity Pressure Visibility Wind Dir Wind Speed Gust Speed Precip Events Conditions
12:51 AM 12.0 °F -0.4 °F 7.0 °F 80% 30.12 in - ENE 9.2 mph - 0.01 in   Unknown
1:51 AM 12.9 °F -1.6 °F 7.0 °F 77% 30.12 in - ENE 12.7 mph - N/A   Unknown
2:51 AM 12.9 °F 1.6 °F 8.1 °F 81% 30.13 in - NE 8.1 mph - N/A   Unknown
3:51 AM 12.9 °F 2.6 °F 3.9 °F 67% 30.13 in - NE 6.9 mph - 0.01 in   Unknown
4:51 AM 12.9 °F 3.8 °F 3.9 °F 67% 30.11 in - NE 5.8 mph - N/A   Unknown
5:51 AM 10.0 °F 3.6 °F 3.9 °F 76% 30.13 in - WSW 3.5 mph - N/A   Unknown
6:51 AM 10.0 °F 1.8 °F 5.0 °F 80% 30.13 in - SW 4.6 mph - N/A   Unknown
7:51 AM 10.0 °F 1.8 °F 5.0 °F 80% 30.12 in - SW 4.6 mph - N/A   Unknown
8:51 AM 10.0 °F 3.6 °F 3.9 °F 76% 30.10 in - SW 3.5 mph - N/A   Unknown
9:51 AM 10.0 °F - 3.9 °F 76% 30.10 in - Calm Calm - N/A   Unknown
10:51 AM 14.0 °F - 6.1 °F 71% 30.08 in - Calm Calm - N/A   Unknown
11:51 AM 16.0 °F 10.4 °F 8.1 °F 71% 30.05 in - WSW 3.5 mph - N/A   Unknown
12:51 PM 17.1 °F 5.8 °F 6.1 °F 62% 30.02 in - SW 9.2 mph - N/A   Unknown
1:51 PM 17.1 °F 11.7 °F 5.0 °F 59% 30.02 in - Variable 3.5 mph - N/A   Unknown
2:51 PM 17.1 °F 10.0 °F 7.0 °F 65% 30.00 in - West 4.6 mph - N/A   Unknown
3:51 PM 15.1 °F 9.4 °F 10.0 °F 80% 29.97 in - WSW 3.5 mph - N/A   Unknown
4:51 PM 14.0 °F 8.2 °F 10.9 °F 88% 29.96 in - Variable 3.5 mph - 0.02 in   Unknown
5:51 PM 16.0 °F 5.3 °F 10.9 °F 81% 29.93 in - WSW 8.1 mph 16.1 mph 0.03 in   Unknown
6:51 PM 16.0 °F 10.4 °F 12.0 °F 84% 29.92 in - Variable 3.5 mph - N/A   Unknown
7:51 PM 15.1 °F 5.2 °F 9.0 °F 77% 29.90 in - Variable 6.9 mph 18.4 mph 0.01 in   Unknown
8:51 PM 14.0 °F 2.9 °F 8.1 °F 77% 29.88 in - WSW 8.1 mph - N/A   Unknown
9:51 PM 12.9 °F -0.2 °F 8.1 °F 81% 29.86 in - WSW 10.4 mph 18.4 mph N/A   Unknown
10:51 PM 12.9 °F -2.2 °F 8.1 °F 81% 29.84 in - WSW 13.8 mph 23.0 mph N/A   Unknown
11:51 PM 12.9 °F -0.9 °F 8.1 °F 81% 29.83 in - WSW 11.5 mph 20.7 mph N/A   Unknown